Theta_e
335 335 335 333 332 333 335 336 336 335 334 335 334 336 336 337 336 336 337 335 334 334 335 334 335 335 334 334 334 336 335 335 336 335 335 335 334 332 330 333 331 333
334 334 333 334 334 334 334 335 337 336 335 336 336 335 337 337 336 336 334 332 334 333 335 334 334 333 333 333 335 335 335 334 335 334 333 332 332 333 331 331 333 334
333 334 333 333 333 335 336 336 336 337 336 336 337 336 336 336 335 335 334 333 333 333 334 335 334 334 335 333 335 335 333 334 334 335 334 332 333 332 334 332 333 338
333 334 334 334 335 335 337 336 336 336 336 335 334 335 336 335 334 333 333 334 335 336 334 334 335 337 335 335 336 334 335 336 335 335 333 332 334 336 337 336 336 335
332 332 333 333 334 335 335 334 335 336 336 335 336 335 335 333 333 332 333 335 336 336 334 332 335 337 336 335 335 335 333 332 333 333 331 330 334 336 336 335 332 336
332 332 332 332 332 333 333 332 332 334 334 335 335 335 334 333 333 332 332 333 334 335 334 333 332 334 333 333 336 336 337 336 337 337 333 331 332 334 334 332 332 334
332 333 335 335 334 333 333 333 332 333 333 334 334 335 334 333 333 333 333 333 333 332 332 333 332 333 334 334 331 334 336 337 336 336 333 333 331 333 333 334 332 330
331 333 334 333 334 334 332 331 330 333 334 333 333 335 335 334 334 334 333 331 331 332 336 334 333 333 336 335 335 336 337 336 336 335 333 332 335 333 335 333 333 332
329 330 331 331 332 332 331 331 333 334 334 333 333 334 335 336 336 333 331 331 331 333 334 334 335 335 336 336 335 337 335 335 333 333 332 333 335 335 334 334 334 333
328 328 329 329 329 332 332 331 334 334 333 333 333 335 335 334 332 332 333 332 330 329 330 330 334 336 335 333 336 336 336 335 333 331 331 334 335 335 335 335 335 334
326 327 327 328 329 331 331 333 334 334 333 331 333 334 334 333 333 334 334 333 332 331 330 331 333 331 331 334 332 334 332 330 329 329 331 332 334 336 335 336 335 335
324 326 327 327 328 329 330 332 334 333 332 332 333 333 332 333 332 333 333 334 333 331 329 330 329 332 333 332 334 333 332 331 330 331 331 331 334 334 334 336 337 335
323 325 326 327 328 329 330 330 330 332 332 332 333 333 333 333 333 332 332 333 333 332 330 331 330 331 334 334 333 331 331 330 331 332 332 331 331 334 335 337 337 336
322 325 326 327 327 328 329 330 330 330 331 332 332 331 333 333 333 333 333 333 332 330 331 331 331 332 334 333 332 330 329 330 331 331 330 331 332 333 336 337 337 336
322 324 327 326 326 326 328 328 328 328 328 329 329 330 329 329 332 332 330 328 328 330 329 331 332 333 332 332 331 328 329 330 330 329 328 329 330 330 334 336 337 337
321 323 324 325 325 326 326 326 326 326 327 328 327 328 327 327 326 327 327 328 327 326 326 329 332 330 311 300 306 328 328 328 329 328 327 328 328 328 331 334 336 335
320 321 322 323 324 324 324 325 325 325 325 325 324 325 325 325 326 324 325 327 325 325 326 326 326 315 297 296 300 309 325 328 327 327 327 327 327 328 329 331 331 329
318 317 317 318 320 321 321 322 322 321 320 321 321 321 321 320 321 321 322 323 323 323 324 324 320 299 295 297 300 306 315 328 327 326 327 327 327 327 329 329 329 329
316 315 313 313 314 315 316 316 316 315 315 315 315 317 318 316 316 319 318 319 320 320 320 320 316 295 295 297 300 303 308 318 325 327 327 327 328 327 328 329 329 329
314 313 311 310 311 312 312 312 310 309 310 312 312 312 311 311 310 311 313 316 318 318 316 314 310 297 294 296 300 302 303 308 327 328 329 329 329 330 330 329 328 328
313 311 308 308 309 310 310 309 308 308 307 306 308 308 307 307 308 308 309 311 314 315 314 311 305 294 294 294 297 300 303 313 333 333 332 331 330 329 329 328 328 328
312 310 308 307 308 308 308 307 307 307 306 306 305 305 305 306 306 307 307 308 310 312 311 310 306 293 294 295 296 300 307 330 331 330 329 327 326 326 326 327 327 329
310 309 308 306 306 307 307 307 307 306 307 307 305 304 303 303 303 303 304 304 305 306 307 306 304 296 293 296 298 300 315 328 327 324 322 319 317 316 313 310 310 315
310 309 308 307 305 305 305 306 306 306 306 306 305 304 302 302 302 302 301 301 301 302 303 304 303 297 292 293 295 298 310 321 320 318 315 312 312 312 309 306 305 302
309 309 308 307 306 305 305 305 306 306 306 306 305 304 302 302 302 302 301 300 299 300 300 301 300 298 293 293 294 298 311 317 315 313 312 311 309 310 311 310 306 301
309 309 308 307 305 305 305 304 306 306 306 305 304 303 301 301 301 300 300 299 299 299 298 299 299 298 294 292 294 295 300 313 312 311 308 308 309 309 309 310 308 305
Wind_Speed
7 7 8 8 8 8 9 9 9 9 8 7 7 8 7 6 5 5 5 7 10 9 7 8 7 7 7 7 7 7 9 9 8 8 9 8 5 6 9 6 5 6
7 8 8 8 9 9 10 10 10 9 9 8 7 7 6 6 5 4 5 8 8 8 8 8 8 8 7 8 9 9 8 8 9 7 8 11 9 8 7 10 11 10
7 8 9 10 10 10 11 10 9 9 9 7 7 7 6 6 6 3 3 7 7 8 10 10 11 11 11 10 11 9 8 8 8 8 7 9 10 9 9 5 8 6
7 7 8 10 11 10 9 9 9 9 9 7 8 8 7 6 6 6 5 8 8 9 8 9 10 9 10 10 10 9 7 6 4 7 6 4 6 9 7 9 6 6
7 7 8 9 9 8 8 9 10 9 7 7 8 8 6 6 6 6 6 7 6 5 6 8 10 8 8 7 8 8 9 9 12 11 9 8 9 7 7 7 8 7
7 7 8 8 8 8 8 8 9 8 7 6 7 5 5 6 5 5 5 6 6 6 7 8 7 8 7 7 7 9 8 9 8 9 6 6 6 9 5 8 8 8
8 8 8 8 7 7 7 8 7 6 6 6 7 7 6 6 5 5 5 4 4 7 10 6 7 9 9 8 7 9 10 10 10 9 9 7 9 10 12 11 11 10
9 8 8 8 7 6 6 6 6 5 5 6 7 7 6 6 6 4 4 5 6 9 8 11 12 10 9 8 8 9 9 7 7 8 8 9 10 8 7 7 7 8
8 8 9 10 9 6 5 5 5 5 4 6 6 6 6 4 5 4 5 6 7 5 4 7 8 8 9 10 10 9 9 10 9 8 9 9 9 9 9 8 8 8
9 8 9 9 9 6 4 4 4 4 4 5 6 5 5 4 3 6 5 4 4 5 7 7 7 3 4 8 9 10 8 8 10 11 10 9 8 9 9 8 9 8
10 9 8 8 9 8 6 4 4 4 4 5 5 4 5 7 7 6 6 7 4 5 6 8 5 9 10 6 7 9 10 9 8 8 8 8 8 7 8 8 7 7
9 9 8 8 7 7 8 6 4 4 4 4 4 5 5 5 6 6 8 8 8 6 3 6 6 6 7 10 9 8 7 7 6 6 7 7 7 7 7 7 7 7
9 9 9 8 8 8 6 6 6 4 4 3 3 4 5 4 5 6 5 5 6 7 7 5 3 7 8 6 7 7 6 6 6 6 6 6 6 6 6 6 7 7
10 9 8 8 9 7 7 6 6 5 4 3 3 4 3 3 3 3 3 3 4 2 2 2 8 9 6 6 6 6 5 6 5 6 7 6 6 6 6 6 6 6
10 9 9 8 8 8 7 6 6 6 5 4 3 3 3 3 2 2 3 3 4 4 2 2 5 4 3 3 6 6 5 6 7 7 7 7 6 7 6 6 6 6
11 10 9 8 8 7 7 6 5 5 5 4 5 5 4 5 5 4 2 1 1 3 2 2 3 3 7 9 10 3 6 6 6 7 7 7 7 7 6 6 6 6
11 10 10 10 10 9 7 7 7 6 6 6 6 7 6 4 4 5 5 3 2 1 2 2 3 4 9 9 8 8 4 6 6 6 6 7 7 7 6 6 6 7
12 12 12 11 11 10 10 10 9 8 8 8 7 6 6 6 7 7 6 6 5 5 3 4 4 9 9 6 5 5 3 4 6 6 6 6 6 7 6 6 7 7
12 12 12 11 11 10 10 10 10 9 9 10 9 8 7 9 7 7 6 5 5 5 4 7 5 10 8 7 3 4 3 3 6 5 6 6 6 6 6 6 7 8
12 12 12 11 11 11 11 12 12 11 10 8 7 8 7 7 8 8 7 7 6 6 8 8 8 10 9 9 7 6 5 10 4 5 5 6 5 5 5 6 7 8
12 12 11 11 12 12 12 13 12 12 13 10 8 7 6 7 7 8 8 7 8 8 8 8 7 13 10 9 9 8 9 4 4 4 5 6 6 7 6 6 5 5
12 12 11 12 12 12 12 12 12 12 12 10 8 7 6 5 8 8 8 8 9 9 8 9 9 16 13 11 10 9 6 3 5 6 6 7 8 8 8 7 6 5
12 12 12 12 12 12 12 12 11 12 11 10 10 10 10 11 11 10 8 9 11 9 9 8 9 14 16 14 14 13 3 5 6 6 7 7 8 9 9 10 9 8
12 13 13 12 12 12 12 12 11 11 11 10 10 11 11 11 10 10 11 11 11 12 10 8 9 14 17 16 15 15 9 7 6 7 8 8 8 9 8 7 10 18
12 13 13 13 12 12 11 12 12 11 10 10 10 10 10 9 10 11 11 12 11 11 15 13 10 12 17 16 16 14 10 8 8 8 8 8 7 7 8 7 7 12
12 13 14 12 12 12 10 10 10 10 11 10 10 10 9 10 11 10 13 13 12 12 13 13 12 12 14 18 17 16 14 8 4 6 7 7 7 7 7 8 9 8
Wind_Direction
269 265 255 246 240 235 236 238 240 241 241 240 240 244 248 247 235 229 228 206 206 200 187 182 165 167 170 179 183 197 195 186 195 189 196 203 207 227 220 210 238 250
282 275 270 264 253 236 236 233 237 241 243 236 230 234 242 246 238 234 210 231 204 196 179 173 174 170 174 186 194 201 194 195 196 189 196 204 202 204 226 224 211 193
289 276 263 257 259 253 243 237 234 236 239 230 219 225 226 223 218 202 187 212 198 192 191 186 190 186 182 189 191 185 189 188 194 197 197 206 206 192 195 169 230 211
300 286 275 268 261 261 254 246 236 232 232 217 209 211 208 205 202 202 210 200 203 192 190 199 199 190 183 182 180 183 185 176 171 187 182 188 229 200 189 196 195 214
310 301 288 281 281 278 275 265 250 242 234 221 207 200 183 193 203 204 189 177 193 199 176 208 195 181 177 178 181 184 180 185 190 188 185 195 206 191 180 187 198 205
307 304 304 293 281 279 272 267 262 252 241 226 216 204 191 194 205 193 189 175 187 193 185 200 181 189 180 191 184 192 178 182 176 180 180 185 212 174 180 189 193 194
310 311 311 303 294 277 274 272 261 257 244 223 212 211 196 199 197 199 193 183 186 209 197 180 214 182 194 187 183 206 180 181 171 179 183 184 211 181 189 186 177 184
314 313 313 311 307 294 289 288 273 261 233 219 219 215 204 192 184 170 190 209 208 233 205 189 187 198 194 188 182 185 182 159 168 182 191 211 199 188 184 182 184 191
324 316 317 313 308 300 301 285 278 267 244 223 212 209 210 191 159 147 171 212 222 220 229 238 204 184 194 186 184 181 173 167 180 183 211 192 186 189 180 183 178 185
332 326 316 308 301 304 302 277 289 273 247 236 217 194 188 157 163 176 158 161 157 185 216 227 226 154 217 188 185 174 166 178 176 180 186 192 190 181 176 177 175 179
342 338 329 321 318 320 322 306 285 266 256 242 220 203 178 167 163 156 175 166 176 172 191 217 206 187 200 182 192 183 181 175 178 179 185 187 180 179 173 172 172 175
343 336 338 335 327 320 325 322 301 294 274 242 225 213 190 186 185 181 191 185 176 139 176 203 187 250 181 193 171 178 173 175 178 176 182 180 180 177 176 169 172 176
344 341 344 350 347 344 340 333 330 323 300 265 229 227 207 201 200 189 184 181 162 146 189 178 198 226 203 182 180 177 184 178 178 172 170 170 172 165 165 163 172 169
348 341 348 0 348 349 347 348 349 348 325 300 281 267 242 210 197 190 166 161 128 107 195 153 196 203 172 187 187 183 179 182 167 173 169 164 164 163 164 164 167 169
357 353 351 7 358 352 351 355 359 4 352 339 331 298 8 347 63 117 120 139 119 87 265 178 203 153 174 200 197 184 184 169 171 171 168 159 165 166 164 157 154 156
8 7 1 4 12 3 354 0 18 26 12 351 27 31 58 58 51 18 67 300 168 126 192 233 72 60 16 354 347 237 171 168 172 175 171 169 171 169 165 156 144 116
13 10 5 11 16 18 14 7 22 33 33 46 51 38 54 81 80 81 46 54 270 84 165 221 59 37 356 358 340 340 190 170 178 174 178 173 175 176 162 155 146 120
15 13 12 12 13 19 19 22 30 36 41 39 47 50 42 34 45 57 58 49 45 41 8 52 61 15 354 358 332 327 340 200 180 178 179 176 179 174 164 155 139 125
18 18 17 16 18 24 30 32 33 34 39 43 39 31 37 47 39 46 51 43 31 50 33 40 51 11 358 351 326 326 313 233 185 177 184 176 172 176 163 157 161 145
22 23 22 19 19 27 38 44 41 31 23 28 45 27 36 44 38 36 29 38 38 47 49 40 29 360 6 11 3 13 2 314 167 166 161 158 156 145 153 154 153 139
25 28 27 24 24 30 36 41 44 40 38 29 29 35 19 49 51 46 40 42 45 50 55 44 24 8 13 24 23 359 347 326 107 124 131 123 111 108 104 117 112 120
27 31 33 32 33 35 37 39 40 40 41 33 20 24 355 23 55 49 31 42 48 46 51 44 30 15 12 20 8 357 329 108 97 102 100 100 92 91 72 71 58 80
31 35 38 38 36 38 39 38 38 38 37 32 39 39 36 41 50 52 37 31 47 37 37 35 31 15 14 17 18 359 38 98 99 88 77 61 50 49 51 39 26 9
37 37 40 40 42 43 44 45 44 44 42 40 43 42 42 44 48 53 50 45 41 41 28 30 30 18 15 17 12 9 25 71 74 77 71 60 56 59 67 64 38 30
44 46 45 46 49 48 47 48 48 50 49 47 46 46 42 41 47 52 54 50 42 42 31 33 28 19 16 20 22 28 41 52 54 65 59 56 63 56 64 68 68 44
49 54 55 50 49 51 52 52 53 52 51 52 50 46 43 46 49 50 58 52 45 46 42 34 33 30 19 24 27 26 37 61 57 71 67 67 59 53 48 42 44 45